Terminal Aerodrome Forecast
Issued by NWS Wilmington, OH

Current Version | Previous Version | Graphics & Text | Print | Product List | Glossary On
Versions: 1 2 3 4 5 6 7 8 9 10 11 12 13 14 15 16 17 18 19 20 21 22
460
FTUS41 KILN 230535
TAFDAY
TAF
KDAY 230535Z 2306/2406 26012G20KT P6SM SCT080
     FM231000 25012G22KT P6SM VCSH OVC050
      TEMPO 2310/2312 4SM -SHRA
     FM231300 24016G28KT P6SM VCSH OVC022
     FM231800 25018G28KT P6SM VCSH OVC015
     FM240000 28012G20KT P6SM OVC012=

USA.gov is the U.S. government's official web portal to all federal, state and local government web resources and services.